Location: Tuolumne
(37.9608°N, 120.2374°W)
Time: 23:28:18
(UTC+00:00)

CZ-3C R/B - Pass Details

Date: 03 August 2024
Orbit: 267 x 32385 km, 20.6° (Epoch: 09 September)

Event Time Altitude Azimuth Distance (km) Brightness Sun altitude
Exits shadow 11:22:42 18° 198° (SSW) 3,126 4.1 -18.2°
Maximum altitude 11:29:28 35° 144° (SE) 4,211 5.2 -17.2°
Drops below altitude 10° 19:10:41 10° 133° (SE) 22,984 9.5 65.8°
Sets 19:38:31 0° 130° (SE) 18,841 8.8 68.3°
